Stations météo

réclame
Mon MeteoGroup
Deauville, France (7031): Température de l'air & dewpoint: 10.07.2019 04:00:00 - 16.07.2019 04:00:00 (CEST)Deauville, France (7031): Température de l'air 5cm: 10.07.2019 04:00:00 - 16.07.2019 04:00:00 (CEST)Deauville, France (7031): Vitesse du vent & gusts: 10.07.2019 04:00:00 - 16.07.2019 04:00:00 (CEST)Deauville, France (7031): Direction du vent: 10.07.2019 04:00:00 - 16.07.2019 04:00:00 (CEST)Deauville, France (7031): reduced air pressure: 10.07.2019 04:00:00 - 16.07.2019 04:00:00 (CEST)Deauville, France (7031): visibility: 10.07.2019 04:00:00 - 16.07.2019 04:00:00 (CEST)Deauville, France (7031): Quantités de précipitations: 10.07.2019 04:00:00 - 16.07.2019 04:00:00 (CEST)
Date & Time tt [°C] td [°C] tt 5cm [°C] ff [km/h] ff [knt] fx [km/h] fx [knt] dd ppp [hPa] vv [km] rr [mm]
16.07.2019 04:00:00 11,3 10,7 4,4 8 5 16 8 E 1020,9 16 0,0
16.07.2019 03:00:00 11,2 10,4 6,0 4 2 11 6 NE 1021,2 8 0,0
16.07.2019 02:00:00 11,8 10,9 7,1 4 2 12 6 NE 1021,2 12 0,0
16.07.2019 01:00:00 12,6 11,5 9,0 7 4 14 8 NNE 1021,5 30 0,0
16.07.2019 00:00:00 13,2 11,1 10,4 8 5 19 10 NE 1021,5 42 0,0
15.07.2019 23:00:00 14,3 10,9 12,0 11 6 23 12 NNE 1021,2 45 0,0
15.07.2019 22:00:00 15,3 10,5 13,2 10 6 26 14 NNE 1020,8 49 0,0
15.07.2019 21:00:00 17,2 11,0 22,2 13 7 27 14 NNE 1020,5 54 0,0
15.07.2019 20:00:00 18,4 11,0 26,7 13 7 27 15 NNE 1020,4 43 0,0
15.07.2019 19:00:00 19,1 11,1 28,0 14 8 27 15 NNE 1020,5 45 0,0
15.07.2019 18:00:00 19,1 11,4 23,0 16 9 31 17 NNE 1020,7 60 0,0
15.07.2019 17:00:00 19,1 12,1 23,7 14 7 39 21 NE 1021,0 59 0,0
15.07.2019 16:00:00 18,8 11,6 25,8 13 7 32 17 NNE 1021,3 20 0,0
15.07.2019 15:00:00 18,1 10,5 22,7 15 8 30 16 NE 1021,5 19 0,0
15.07.2019 14:00:00 18,0 11,8 21,1 18 10 29 16 NNW 1021,7 49 0,0
15.07.2019 13:00:00 17,8 10,4 22,4 13 7 29 16 N 1021,9 38 0,0
15.07.2019 12:00:00 17,9 9,8 20,7 13 7 25 13 NE 1022,0 20 0,0
15.07.2019 11:00:00 16,0 9,9 19,1 15 8 26 14 NNE 1022,3 37 0,0
15.07.2019 10:00:00 15,3 9,4 17,9 12 6 24 13 NE 1022,5 58 0,0
15.07.2019 09:00:00 14,8 10,0 13,1 9 5 16 9 ENE 1022,2 20 0,0
15.07.2019 08:00:00 13,4 10,6 11,8 6 4 18 10 NE 1022,2 54 0,0
15.07.2019 07:00:00 12,1 11,2 9,0 6 3 15 8 NE 1022,1 39 0,0
15.07.2019 06:00:00 11,0 10,2 6,4 6 3 16 9 NNE 1022,2 38 0,0
15.07.2019 05:00:00 10,6 9,4 5,9 6 4 16 9 NNE 1022,0 52 0,0
15.07.2019 04:00:00 11,3 9,7 6,2 7 4 14 7 NNE 1022,2 60 0,0
15.07.2019 03:00:00 11,8 10,0 8,0 6 4 15 8 NNE 1022,6 60 0,0
15.07.2019 02:00:00 13,3 10,5 10,3 6 3 23 13 NE 1022,4 60 0,0
15.07.2019 01:00:00 14,2 11,4 12,0 12 6 23 13 NNE 1022,2 50 0,0
15.07.2019 00:00:00 14,4 11,2 12,3 11 6 24 13 NNE 1022,1 20 0,0
14.07.2019 23:00:00 15,1 10,7 12,9 12 6 27 15 NNE 1022,0 48 0,0
14.07.2019 22:00:00 16,2 9,8 14,6 14 8 30 16 NNE 1021,6 60 0,0
14.07.2019 21:00:00 17,9 9,0 21,2 19 10 46 25 NNE 1021,6 58 0,0
14.07.2019 20:00:00 18,9 9,1 23,9 27 14 49 26 NNE 1021,2 39 0,0
14.07.2019 19:00:00 20,3 11,0 25,9 17 9 44 24 NNE 1021,1 42 0,0
14.07.2019 18:00:00 20,7 12,4 25,8 24 13 41 22 NNE 1021,0 60 0,0
14.07.2019 17:00:00 21,7 13,8 24,2 18 10 37 20 NNE 1020,8 60 0,0
14.07.2019 16:00:00 20,9 12,1 24,9 15 8 34 19 NE 1021,0 59 0,0
14.07.2019 15:00:00 19,8 11,3 24,2 17 9 38 20 NE 1021,2 49 0,0
14.07.2019 14:00:00 20,0 12,5 22,9 16 9 37 20 NNE 1021,2 29 0,0
14.07.2019 13:00:00 18,3 11,8 23,1 18 10 32 17 NE 1021,8 20 0,0
14.07.2019 12:00:00 17,4 12,5 18,4 13 7 31 17 NE 1022,1 20 0,0
14.07.2019 11:00:00 16,0 13,1 15,5 13 7 27 15 NE 1022,3 32 0,0
14.07.2019 10:00:00 15,7 12,8 16,9 8 5 18 10 NE 1022,3 26 0,0
14.07.2019 09:00:00 15,1 13,1 14,0 3 2 16 8 NE 1022,1 33 0,0
14.07.2019 08:00:00 13,4 12,5 12,1 6 4 18 10 NE 1022,0 18 0,0
14.07.2019 07:00:00 12,9 12,4 11,8 9 5 25 14 NE 1021,8 12 0,0
14.07.2019 06:00:00 13,3 13,0 8,7 12 6 22 12 NNE 1021,4 8 0,0
14.07.2019 05:00:00 12,8 12,5 6,8 6 4 10 5 NNE 1021,4 0,3 0,2
14.07.2019 04:00:00 12,5 11,7 6,9 3 2 7 4 NE 1021,8 0,2 0,0
14.07.2019 03:00:00 13,9 12,9 9,4 4 2 15 8 NE 1022,0 2,8 0,0
14.07.2019 02:00:00 14,8 13,7 12,5 9 5 17 9 NE 1022,0 11 0,0
14.07.2019 01:00:00 14,9 13,6 12,4 8 5 15 8 NNE 1021,8 11 0,0
14.07.2019 00:00:00 15,7 13,9 12,2 9 5 19 10 NNE 1021,7 16 0,0
13.07.2019 23:00:00 15,7 13,7 12,4 8 5 14 7 NNE 1021,8 16 0,0
13.07.2019 22:00:00 17,5 13,8 16,0 9 5 22 12 NNE 1021,4 41 0,0
13.07.2019 21:00:00 19,5 14,1 22,8 13 7 27 14 N 1021,2 54 0,0
13.07.2019 20:00:00 20,8 14,4 26,4 12 6 27 15 N 1020,9 45 0,0
13.07.2019 19:00:00 21,0 14,2 26,8 16 9 31 17 N 1021,1 14 0,0
13.07.2019 18:00:00 21,9 15,3 26,7 16 8 29 15 NNW 1021,0 36 0,0
13.07.2019 17:00:00 20,8 14,9 25,6 18 10 34 18 NNW 1021,4 20 0,0
13.07.2019 16:00:00 20,0 14,1 24,5 19 10 34 19 NW 1021,7 20 0,0
13.07.2019 15:00:00 20,2 15,0 25,8 17 9 32 17 WNW 1021,8 36 0,0
13.07.2019 14:00:00 20,3 14,9 24,5 14 8 33 18 NW 1021,8 40 0,0
13.07.2019 13:00:00 21,3 15,6 25,6 15 8 26 14 WNW 1021,6 20 0,0
13.07.2019 12:00:00 20,0 15,6 21,0 9 5 19 10 NW 1021,7 20 0,0
13.07.2019 11:00:00 19,9 15,3 21,9 8 4 16 9 W 1021,7 20 0,0
13.07.2019 10:00:00 19,4 14,2 20,6 5 3 16 8 NNE 1021,7 28 0,0
13.07.2019 09:00:00 17,9 14,2 15,6 7 4 13 7 N 1021,4 25 0,0
13.07.2019 08:00:00 15,9 14,6 10,3 3 2 9 5 N 1021,0 20 0,0
13.07.2019 07:00:00 12,7 12,1 8,1 3 2 8 5 NNW 1020,8 17 0,0
13.07.2019 06:00:00 13,4 11,8 8,9 5 3 17 9 N 1020,4 20 0,0
13.07.2019 05:00:00 14,8 12,7 9,9 9 5 19 11 N 1020,5 53 0,0
13.07.2019 04:00:00 14,4 13,8 9,6 9 5 15 8 NNW 1020,0 49 0,0
13.07.2019 03:00:00 13,5 12,7 9,2 5 3 10 6 WNW 1019,9 4,9 0,0
13.07.2019 02:00:00 15,0 13,9 11,1 7 4 13 7 W 1019,7 26 0,0
13.07.2019 01:00:00 15,1 14,1 11,6 6 3 14 8 WNW 1020,0 29 0,0
13.07.2019 00:00:00 16,3 14,0 14,4 9 5 19 10 W 1019,6 30 0,0
12.07.2019 23:00:00 16,7 14,0 15,4 11 6 22 12 WNW 1019,4 24 0,0
12.07.2019 22:00:00 17,0 13,7 16,0 10 5 28 15 NW 1019,1 58 0,0
12.07.2019 21:00:00 18,4 14,3 20,2 10 6 27 15 NW 1018,5 18 0,0
12.07.2019 20:00:00 18,7 15,4 22,3 14 8 29 16 NW 1018,0 18 0,0
12.07.2019 19:00:00 19,2 15,7 23,7 16 9 28 15 NW 1017,6 18 0,0
12.07.2019 18:00:00 20,1 15,9 24,6 15 8 31 17 NW 1017,5 22 0,0
12.07.2019 17:00:00 20,5 15,7 23,2 16 9 31 17 WNW 1017,3 27 0,0
12.07.2019 16:00:00 19,6 16,2 19,7 15 8 31 17 NW 1017,5 33 0,0
12.07.2019 15:00:00 18,9 16,5 18,5 15 8 27 15 NW 1017,3 27 0,2
12.07.2019 14:00:00 17,9 16,6 17,1 16 8 26 14 W 1017,4 7 0,2
12.07.2019 13:00:00 16,8 15,8 17,2 10 6 25 13 W 1017,2 4,5 0,0
12.07.2019 12:00:00 17,6 14,7 16,6 16 9 32 17 W 1016,9 19 0,2
12.07.2019 11:00:00 17,0 15,5 16,8 16 9 25 13 W 1016,6 9 0,0
12.07.2019 10:00:00 18,3 15,7 18,8 11 6 23 13 WNW 1016,3 26 0,0
12.07.2019 09:00:00 17,2 15,5 17,3 11 6 21 12 W 1016,3 20 0,0
12.07.2019 08:00:00 16,6 15,3 14,7 12 7 19 10 W 1015,8 19 0,0
12.07.2019 07:00:00 14,9 13,9 14,2 13 7 21 11 WSW 1015,3 19 0,0
12.07.2019 06:00:00 14,7 13,9 13,8 12 7 18 10 WSW 1015,3 19 0,0
12.07.2019 05:00:00 14,2 13,6 11,3 7 4 15 8 SW 1015,1 19 0,0
12.07.2019 04:00:00 14,2 13,1 11,0 6 3 11 6 WSW 1015,1 33 0,0
12.07.2019 03:00:00 15,9 14,4 14,7 8 4 17 9 WNW 1015,4 53 0,0
12.07.2019 02:00:00 15,9 13,9 14,7 8 4 20 11 WNW 1015,0 58 0,0
12.07.2019 01:00:00 16,1 13,9 13,8 9 5 20 11 NW 1015,5 60 0,0
12.07.2019 00:00:00 15,3 13,8 9,6 8 4 14 8 NW 1015,4 60 0,0
11.07.2019 23:00:00 14,9 13,4 10,3 5 3 12 6 W 1014,9 49 0,0
11.07.2019 22:00:00 15,9 13,4 14,4 7 4 17 9 NW 1015,0 55 0,0
11.07.2019 21:00:00 17,9 13,2 19,0 9 5 23 12 NW 1015,0 22 0,0
11.07.2019 20:00:00 19,1 13,1 22,7 10 6 27 14 WNW 1014,9 24 0,0
11.07.2019 19:00:00 19,4 12,4 24,6 13 7 29 16 NW 1014,6 27 0,0
11.07.2019 18:00:00 20,1 11,8 25,3 16 9 28 15 NNW 1014,6 27 0,0
11.07.2019 17:00:00 21,3 12,2 27,7 15 8 29 16 NNW 1014,5 20 0,0
11.07.2019 16:00:00 21,8 9,3 28,2 16 9 29 16 NW 1014,4 22 0,0
11.07.2019 15:00:00 23,2 11,9 29,7 13 7 29 16 NNW 1014,1 25 0,0
11.07.2019 14:00:00 23,3 10,7 26,2 14 7 29 15 WNW 1014,4 29 0,0
11.07.2019 13:00:00 22,7 11,7 28,1 13 7 25 13 WNW 1014,5 33 0,0
11.07.2019 12:00:00 22,4 14,8 25,7 7 4 15 8 W 1014,3 39 0,0
11.07.2019 11:00:00 21,6 13,5 23,2 6 3 11 6 WSW 1014,5 51 0,0
11.07.2019 10:00:00 19,1 15,2 19,1 0 0 6 3 N 1014,8 50 0,0
11.07.2019 09:00:00 17,6 15,9 17,6 2 1 5 3 ESE 1015,0 20 0,0
11.07.2019 08:00:00 16,8 15,5 15,4 2 1 8 4 SW 1015,0 20 0,0
11.07.2019 07:00:00 16,8 14,8 14,1 3 2 16 9 NW 1015,2 29 0,0
11.07.2019 06:00:00 15,5 13,5 13,9 3 2 10 6 S 1014,6 19 0,0
11.07.2019 05:00:00 15,7 14,2 14,1 0 0 8 4 N 1015,0 38 0,0
11.07.2019 04:00:00 16,6 14,4 15,0 5 3 7 4 W 1015,8 41 0,0
11.07.2019 03:00:00 17,2 13,9 14,6 5 3 10 5 W 1016,2 53 0,0
11.07.2019 02:00:00 15,4 12,2 13,4 6 3 8 4 WSW 1016,7 60 0,0
11.07.2019 01:00:00 15,9 11,7 13,3 4 2 5 3 SSE 1016,7 60 0,0
11.07.2019 00:00:00 15,5 11,9 12,8 2 1 6 3 W 1017,3 60 0,0
10.07.2019 23:00:00 15,8 11,2 12,8 3 1 5 3 SW 1017,5 60 0,0
10.07.2019 22:00:00 17,5 10,6 14,9 2 1 9 5 NNW 1017,5 60 0,0
10.07.2019 21:00:00 20,4 11,1 20,5 5 3 19 10 N 1017,8 60 0,0
10.07.2019 20:00:00 22,9 11,3 26,0 9 5 20 11 NW 1018,0 34 0,0
10.07.2019 19:00:00 22,7 11,4 25,9 7 4 24 13 NNW 1018,0 48 0,0
10.07.2019 18:00:00 22,8 10,6 26,6 13 7 26 14 NNW 1018,4 38 0,0
10.07.2019 17:00:00 23,3 11,0 28,3 12 6 21 11 NNW 1018,7 34 0,0
10.07.2019 16:00:00 23,6 11,3 28,8 11 6 23 13 NW 1019,2 32 0,0
10.07.2019 15:00:00 23,7 12,0 28,3 11 6 23 12 NW 1019,7 30 0,0
10.07.2019 14:00:00 23,0 12,0 26,6 15 8 23 12 N 1020,4 32 0,0
10.07.2019 13:00:00 22,6 12,5 29,1 7 4 21 11 N 1020,5 35 0,0
10.07.2019 12:00:00 22,9 12,2 25,2 8 4 16 9 SSW 1020,9 40 0,0
10.07.2019 11:00:00 21,3 11,3 25,3 5 3 16 9 S 1021,0 38 0,0
10.07.2019 10:00:00 19,4 10,1 21,9 8 5 16 9 S 1021,1 36 0,0
10.07.2019 09:00:00 18,1 10,7 17,1 7 4 15 8 SSE 1021,1 39 0,0
10.07.2019 08:00:00 16,2 11,4 10,4 6 3 11 6 E 1021,1 20 -
10.07.2019 07:00:00 11,2 9,8 6,1 2 1 6 4 E 1021,6 48 0,0
10.07.2019 06:00:00 10,7 8,8 5,8 0 0 4 2 N 1021,5 53 0,0
10.07.2019 05:00:00 10,5 9,1 6,2 0 0 5 3 N 1021,5 59 0,0
10.07.2019 04:00:00 10,7 9,1 6,1 0 0 5 3 N 1021,7 57 0,0

tt = Température de l'air
td = dewpoint
tt 5cm = Température de l'air 5cm
ff = Vitesse du vent
fx = gusts
dd = Direction du vent
ppp = reduced air pressure
vv = visibility
rr = Quantités de précipitations

stations d'obs. à proximité